Location: Dannhausen
(51.8650°N, 10.1026°E)
Time: 03:08:58
(UTC+00:00)

Meteor 1-16 Rocket - Pass Details

Date: 09 April 2020
Orbit: 791 x 907 km, 81.2° (Epoch: 25 May)

Event Time Altitude Azimuth Distance (km) Brightness Sun altitude
Rises 18:31:51 0° 182° (S) 3,320 7.1 -4.4°
Reaches altitude 10° 18:34:12 10° 180° (S) 2,407 6.4 -4.8°
Maximum altitude 18:39:36 69° 98° (E) 895 4.2 -5.6°
Drops below altitude 10° 18:45:14 10° 17° (NNE) 2,501 6.7 -6.4°
Sets 18:47:43 0° 15° (NNE) 3,460 7.5 -6.7°
